GFSGBSN_500_spd_021.txt.gz
Wind_Speed
15 15 12 12 8 6 7 10 9 5 8 14 15 16 16 15 17 20 22 29 34 33 30 28 28 25 23 24 21 18 20 22 21 19 20 21 21 20 18 16 15 15 13 12 11 11 9
16 14 11 9 10 7 8 5 5 9 8 13 15 16 14 18 21 22 32 37 36 33 29 26 23 20 21 22 18 18 18 19 19 17 16 15 13 12 10 10 10 10 10 11 12 13 11
16 14 13 10 12 7 7 3 9 6 11 14 11 16 17 18 26 36 41 39 35 30 26 23 20 19 20 18 16 16 16 15 15 14 12 11 9 9 8 7 10 11 9 10 11 11 8
16 16 14 13 12 6 4 3 11 8 11 11 12 16 20 32 42 42 39 35 30 26 23 21 20 19 18 16 15 14 13 13 12 10 9 8 7 6 6 5 4 3 2 2 1 1 2
14 16 14 14 10 6 5 6 10 15 15 16 22 28 38 44 41 38 34 30 28 24 22 20 19 17 16 14 13 12 11 9 9 8 7 6 6 5 3 3 2 1 3 5 6 6 7
16 15 13 18 7 6 6 9 13 20 25 30 34 38 42 39 36 33 30 28 25 23 21 19 16 14 14 13 11 10 8 7 6 4 4 4 4 5 4 3 3 3 4 6 7 9 7
16 17 18 15 7 7 11 17 24 28 32 35 39 39 38 36 33 29 26 25 23 21 19 17 16 14 12 11 9 7 5 4 3 1 0 0 1 2 2 3 3 4 7 7 7 8 11
15 19 20 13 10 12 18 27 31 33 34 37 37 36 33 30 29 28 27 24 22 20 18 16 13 11 8 7 6 4 0 1 2 3 3 2 2 1 3 4 4 5 7 7 8 6 9
17 21 19 17 14 18 26 32 34 33 35 36 35 33 32 31 29 27 24 22 20 17 13 10 7 5 2 2 2 5 3 5 6 5 4 4 4 5 6 8 9 9 9 9 11 13 13
20 22 20 17 18 23 31 35 35 35 35 35 34 33 31 29 26 24 21 19 16 13 9 6 4 3 4 5 7 7 8 5 7 7 7 6 7 9 10 11 12 13 14 13 14 15 16
23 23 22 18 21 28 35 38 37 35 34 33 32 30 28 26 24 22 19 15 12 9 9 8 7 8 11 12 12 13 11 9 9 9 11 12 13 14 14 14 15 16 17 18 18 17 18
23 25 23 21 23 32 38 40 38 35 33 31 28 27 26 23 21 18 14 12 11 12 13 9 11 12 14 14 15 16 14 13 12 12 13 14 15 16 17 16 18 19 20 21 20 18 18
25 25 23 23 27 36 40 40 38 35 33 30 27 26 24 22 20 17 15 15 16 18 15 16 16 17 17 17 17 15 14 13 13 14 16 19 20 20 20 20 20 20 19 22 23 21 19
25 25 25 25 30 39 40 41 38 36 34 31 28 25 23 22 20 18 17 18 20 20 21 21 20 19 18 17 13 11 11 13 15 16 18 16 15 16 18 20 21 21 20 19 21 22 22
28 26 26 26 32 38 39 41 40 37 35 32 29 27 25 23 21 20 20 21 22 23 21 20 18 19 16 13 13 13 14 15 13 10 10 10 11 13 14 15 17 17 17 19 21 22 22
30 28 28 28 33 39 40 41 40 37 35 33 31 28 26 23 22 22 21 23 21 19 18 15 14 12 12 11 8 6 6 7 7 9 10 11 12 14 14 15 17 19 20 22 24 26 27
31 29 29 29 32 38 40 40 39 38 36 33 31 28 25 24 23 22 20 17 15 12 10 9 9 9 8 7 7 7 8 7 9 11 12 14 16 18 19 20 21 22 23 25 26 28 31
32 30 30 30 32 36 39 39 39 38 36 32 30 27 25 21 18 16 15 15 13 11 9 7 7 7 6 5 5 6 8 9 11 13 14 16 17 18 21 21 22 24 25 27 29 30 31
33 31 31 30 31 33 38 39 38 37 34 31 27 23 19 18 18 16 13 12 13 10 10 9 8 8 7 7 7 7 7 8 10 12 16 18 20 22 26 26 27 27 28 29 30 33 31
35 33 31 31 31 32 33 34 36 36 33 28 24 20 17 17 16 16 14 13 13 11 11 11 11 10 9 8 7 7 8 8 13 17 20 24 26 27 28 29 29 30 33 33 36 38 42
36 35 32 31 31 32 32 33 33 32 30 27 24 21 19 16 16 15 14 14 13 12 12 12 12 10 8 7 8 10 11 16 19 23 26 30 32 32 33 32 32 31 33 36 39 40 42
36 36 34 32 31 33 34 34 34 31 29 27 24 22 18 15 13 14 14 14 13 12 12 12 11 10 9 10 13 15 19 21 23 27 32 35 39 40 35 38 35 30 31 34 37 38 39
36 36 36 33 33 34 34 34 33 32 29 26 23 21 18 15 14 14 15 14 13 13 13 12 12 13 13 15 17 20 23 25 27 29 35 38 44 46 42 40 39 31 30 36 37 35 38
38 36 36 34 34 34 35 34 33 32 30 27 24 22 19 18 17 16 14 14 13 13 14 14 15 16 17 19 21 23 26 29 31 34 38 42 48 50 50 47 43 27 33 39 40 35 38
40 38 36 36 35 35 35 34 33 32 30 28 27 25 23 20 19 18 17 17 16 17 16 17 18 20 22 24 25 26 29 32 35 37 38 45 51 51 52 53 47 24 28 33 37 33 38
41 41 39 36 36 36 35 34 34 33 32 31 30 28 26 25 23 21 21 21 21 20 20 22 23 24 26 28 28 28 32 35 39 41 42 49 50 49 50 50 47 36 33 32 35 38 40
42 42 42 39 37 36 35 35 34 33 33 32 32 31 30 29 27 26 26 27 26 26 27 27 27 28 30 31 29 32 37 41 43 46 49 48 46 43 44 44 39 34 37 38 42 47 50
44 42 42 42 39 36 35 34 34 34 34 34 33 33 32 31 30 30 29 29 30 30 31 30 31 31 33 33 35 40 44 47 50 52 47 42 40 41 40 34 32 34 39 41 46 50 55
46 44 43 44 42 39 37 35 34 33 33 35 34 33 33 33 32 31 31 31 32 33 32 32 32 34 37 38 41 45 48 51 55 51 42 34 33 35 34 31 34 38 42 47 52 56 59

GFSGBSN_500_spd_024.txt.gz
Wind_Speed
20 19 15 15 14 12 10 12 14 17 11 13 15 16 19 21 17 18 21 27 24 28 32 32 30 29 27 25 23 20 18 18 19 20 19 17 14 14 13 15 17 15 13 14 13 12 10
18 18 16 12 12 13 12 11 5 4 13 18 19 20 21 21 20 23 27 22 33 37 36 34 31 29 28 27 25 25 24 22 23 22 22 19 17 15 14 14 14 13 14 12 11 12 10
19 17 15 13 12 13 10 6 7 5 10 15 20 21 20 25 24 23 30 38 39 37 33 31 29 28 27 25 22 21 20 18 18 17 15 13 13 13 11 11 10 10 9 8 9 10 10
19 18 15 15 11 15 10 7 12 11 15 17 21 18 25 25 25 37 42 40 37 34 32 30 27 27 25 23 21 19 17 15 14 14 13 11 10 9 9 8 7 5 4 7 10 10 8
17 17 17 16 14 12 7 7 12 16 15 15 20 19 24 33 43 44 41 38 35 33 30 28 26 24 22 19 18 15 14 12 12 11 9 8 7 6 5 3 2 4 3 2 3 4 5
16 16 19 16 16 8 6 10 16 17 15 19 24 30 39 46 45 42 38 35 33 30 28 26 23 21 19 17 16 14 12 12 13 11 9 8 7 6 5 5 5 3 2 3 5 7 8
16 18 19 16 16 9 7 13 19 19 22 30 37 44 46 44 41 38 35 33 30 29 26 23 22 18 16 14 12 10 8 7 7 8 8 7 6 6 6 5 4 2 3 4 6 9 12
18 19 19 18 15 9 11 17 24 28 33 40 44 44 43 41 37 34 33 30 28 25 25 24 21 17 14 11 9 6 4 3 3 4 4 5 6 7 7 4 3 3 5 7 7 8 11
20 19 21 19 12 10 17 27 32 36 38 42 42 40 39 36 34 33 31 29 26 24 20 19 15 12 9 6 5 5 2 3 5 4 4 6 8 8 7 6 6 7 9 10 11 12 14
20 20 22 16 13 17 25 33 36 38 40 41 39 36 35 33 32 30 28 26 23 20 16 12 8 5 3 1 2 3 5 3 5 7 8 9 9 9 9 10 11 12 12 13 13 15 16
23 23 22 16 15 23 32 36 38 40 40 38 37 35 34 32 31 29 27 22 18 15 12 7 4 3 4 6 9 10 10 9 8 9 10 10 11 12 13 14 15 16 16 16 17 17 18
23 25 22 17 19 28 37 39 39 39 37 36 35 34 33 31 28 26 22 17 13 10 6 3 4 6 7 10 12 13 13 12 11 12 12 12 13 14 16 17 18 18 19 20 22 22 20
24 25 23 19 22 32 40 39 38 38 37 36 35 33 31 28 25 21 17 13 11 9 6 8 10 11 13 14 14 14 13 12 11 11 12 14 17 19 20 20 21 21 20 21 21 22 22
26 27 26 22 25 35 41 41 39 38 38 36 33 31 29 26 23 20 17 13 12 11 13 14 16 16 16 15 14 10 9 8 9 11 13 13 11 11 12 14 15 17 17 18 19 20 22
26 28 27 24 26 35 41 42 40 38 36 34 32 29 27 24 22 19 17 16 15 15 17 19 18 16 14 12 10 10 9 8 7 5 5 6 7 8 9 11 13 14 15 17 18 19 21
27 27 27 25 27 33 41 43 41 38 36 33 31 29 26 23 21 20 18 17 18 18 19 17 15 12 10 9 8 5 3 3 3 3 5 7 8 11 13 14 16 17 18 20 20 23 23
29 28 27 27 29 34 39 44 42 40 37 35 32 29 26 24 23 21 20 19 19 16 12 10 9 8 8 6 4 4 4 3 4 5 7 10 12 14 16 17 19 20 22 23 25 26 28
30 29 28 29 29 35 38 42 42 40 38 35 33 30 28 25 23 22 20 19 14 12 11 10 7 6 6 5 3 2 3 4 4 5 7 10 14 17 20 23 24 25 26 28 29 32 33
32 30 29 28 28 33 38 40 42 41 39 37 33 31 28 26 23 21 17 14 13 13 13 11 9 7 6 5 5 5 5 4 3 5 10 13 18 23 24 24 26 27 29 29 32 35 35
34 31 29 29 29 30 36 38 40 41 39 36 34 31 28 24 20 19 18 14 13 14 13 12 11 9 8 7 7 7 6 6 7 10 13 17 24 24 28 30 31 31 31 32 34 34 37
36 33 30 28 29 30 33 38 39 39 38 36 34 30 26 21 19 19 18 17 17 16 15 13 12 10 9 8 8 9 9 10 13 16 18 21 26 27 32 35 33 32 34 37 37 35 38
38 34 33 31 29 30 31 33 37 37 37 35 32 29 26 22 20 19 19 19 19 17 15 14 12 10 10 10 10 11 12 13 17 20 23 26 30 33 34 38 37 33 35 36 37 36 38
39 36 34 31 29 30 31 32 33 34 35 33 31 29 26 23 20 19 19 19 18 16 15 13 12 11 11 12 13 15 15 16 19 22 26 30 36 41 40 44 42 38 36 34 33 33 35
39 37 35 34 32 31 31 32 33 33 33 33 32 29 28 24 22 20 19 18 16 15 15 14 13 12 13 14 16 18 19 19 22 24 28 33 40 46 50 51 47 38 38 31 29 26 31
40 38 36 35 33 32 32 33 33 33 34 34 32 30 27 24 22 20 19 18 18 17 16 15 15 16 17 18 20 21 22 22 25 26 30 36 44 51 54 54 48 32 34 33 31 22 28
41 39 37 36 35 33 34 34 34 34 35 35 33 31 29 26 24 22 21 20 19 20 19 19 19 20 22 22 23 24 24 25 29 30 33 39 47 54 51 49 46 39 31 29 28 32 32
41 41 38 36 36 34 34 33 33 34 35 34 33 31 29 28 27 25 24 24 24 24 24 24 24 25 26 27 27 28 28 30 32 35 38 42 52 49 47 44 39 34 33 33 35 40 43
43 41 39 38 36 36 35 35 35 35 35 34 33 31 30 30 29 29 28 28 29 28 28 28 29 29 31 30 30 32 32 32 35 39 41 46 52 44 43 37 37 35 37 40 42 45 49
44 44 40 40 38 37 36 36 36 36 35 34 33 32 32 32 31 31 30 30 30 31 31 31 31 32 32 32 33 34 35 37 40 43 44 45 43 40 38 32 37 41 45 46 48 51 55

GFSGBSN_500_spd_030.txt.gz
Wind_Speed
36 32 30 27 26 24 23 20 18 20 20 22 22 21 19 17 18 22 18 15 14 11 12 14 12 16 19 17 14 20 21 24 24 23 21 22 14 10 3 7 9 11 14 15 16 13 10
36 32 28 28 23 22 21 18 17 17 19 24 25 24 21 19 18 21 17 13 12 16 15 15 17 21 20 20 21 22 24 24 25 22 15 21 17 17 8 10 5 11 15 14 12 10 9
30 31 28 27 22 20 19 16 18 20 18 16 17 18 17 20 21 17 15 15 17 16 14 20 23 23 20 21 21 14 18 13 11 15 21 17 20 19 17 11 11 9 8 5 3 4 4
32 30 22 24 20 19 17 17 19 14 12 12 14 13 15 23 22 20 21 22 18 20 25 25 25 24 22 20 22 23 22 23 21 18 16 17 14 14 14 10 8 7 4 2 1 3 3
34 28 22 23 19 18 16 16 16 14 12 13 17 19 21 24 24 23 23 21 25 32 34 34 33 31 30 26 24 22 21 20 18 16 15 14 13 13 12 12 10 5 4 3 10 6 5
28 25 24 21 19 18 15 17 13 12 15 18 21 21 22 27 27 24 24 35 38 37 36 32 30 29 27 25 24 22 20 19 19 18 16 15 16 13 10 10 5 7 3 16 13 5 6
26 23 23 20 20 17 16 14 12 16 13 13 19 21 35 30 28 28 37 40 37 35 34 33 29 26 25 21 18 18 17 16 14 15 17 12 14 1 16 6 9 16 13 7 11 7 9
24 24 22 19 21 17 17 13 16 20 17 18 20 31 30 28 31 39 40 38 39 34 28 25 24 22 21 17 17 14 13 12 12 13 10 8 8 7 11 9 10 17 13 13 12 9 10
25 23 22 19 19 18 18 12 19 22 19 21 24 28 33 36 42 41 37 34 34 30 27 24 22 21 18 15 13 11 9 8 8 7 7 7 4 7 8 9 9 12 13 12 12 11 11
26 24 21 21 19 19 16 14 23 22 25 26 33 39 41 42 40 38 36 32 30 27 27 23 21 17 14 13 11 8 7 5 5 7 7 5 7 8 10 11 10 16 10 14 14 15 14
28 25 23 21 20 18 15 20 25 26 29 38 43 46 44 41 41 38 35 31 29 27 25 19 15 12 9 7 5 4 2 1 3 6 9 8 10 10 12 12 13 17 17 17 18 19 19
29 25 24 23 20 18 18 27 30 34 42 46 47 45 41 40 36 34 31 28 26 22 16 15 11 7 6 3 1 1 2 4 6 9 11 10 11 12 12 14 16 18 20 20 21 21 21
29 26 26 24 22 20 25 31 37 43 47 47 46 42 39 37 36 32 30 27 23 17 13 11 8 3 0 3 5 5 6 6 7 8 11 11 11 11 13 14 12 14 14 13 13 11 11
30 29 27 27 24 24 31 37 44 47 49 47 43 40 37 35 33 31 29 24 21 15 11 7 2 4 6 8 8 8 7 5 5 6 7 6 4 5 6 7 9 10 10 11 11 11 16
31 30 29 28 26 29 36 42 47 48 46 45 41 38 36 35 33 31 27 23 18 13 8 4 5 9 10 9 8 7 6 6 7 7 7 6 3 4 5 8 10 10 12 14 16 17 18
32 32 31 29 27 32 38 44 48 47 45 43 40 37 36 34 32 29 26 21 14 9 7 8 11 11 10 7 5 6 6 4 5 5 4 3 2 3 5 7 9 13 14 17 20 22 22
33 32 32 30 29 35 41 46 48 47 44 41 38 36 35 34 32 29 24 19 11 11 10 11 13 10 7 5 4 4 4 5 5 5 4 3 1 2 6 9 13 18 21 19 20 24 26
34 33 30 29 31 36 42 47 49 48 44 41 38 37 36 34 30 26 23 16 13 13 13 14 12 8 6 6 4 3 4 6 6 6 5 4 2 6 10 12 14 18 21 24 27 27 29
36 34 31 31 33 38 43 46 48 46 44 40 39 37 35 33 30 26 20 15 17 16 16 15 11 9 6 6 6 6 6 6 7 7 6 4 6 11 14 15 18 23 28 33 36 34 27
37 35 32 31 33 38 42 46 47 46 44 42 40 36 35 32 28 25 22 21 19 18 16 14 12 11 9 8 8 8 8 8 8 8 7 8 9 11 14 18 24 28 33 39 42 39 37
37 35 33 31 32 37 42 46 46 46 44 42 39 38 35 31 27 25 23 22 21 19 16 15 14 12 12 11 11 10 10 10 9 10 10 11 13 15 17 20 25 30 36 42 42 37 36
38 35 33 32 31 35 39 44 47 47 46 44 41 38 34 30 29 27 24 21 20 19 17 16 16 15 15 15 14 12 11 11 10 12 12 15 17 19 22 24 27 32 36 42 43 39 35
40 37 35 33 32 32 36 40 44 46 45 45 41 38 36 33 30 28 24 23 22 18 19 19 19 19 17 14 15 14 13 13 12 13 16 19 22 23 25 29 31 36 37 43 41 36 34
41 39 36 33 32 31 34 37 41 43 45 42 41 39 36 35 32 28 25 22 23 22 21 21 21 19 18 19 16 15 15 15 15 17 20 22 25 27 29 32 34 37 39 42 38 34 31
42 40 37 35 33 31 32 35 39 40 41 42 42 40 38 36 33 29 25 26 23 23 24 20 20 21 21 19 18 18 18 18 19 20 24 26 28 32 35 37 38 39 47 39 39 32 32
43 41 38 36 34 32 32 33 35 38 39 40 40 40 38 37 34 32 30 28 28 25 23 24 23 23 22 21 21 20 22 22 23 24 26 30 32 35 38 41 43 44 46 49 42 36 37
44 42 40 37 35 32 32 33 34 35 37 38 38 38 38 36 35 34 33 31 30 28 27 26 25 25 23 23 23 24 26 26 29 29 30 33 35 37 41 43 43 46 49 47 45 42 38
46 43 41 38 36 36 32 32 33 34 34 36 37 37 37 37 37 36 35 35 33 31 30 29 28 26 25 26 27 27 29 30 32 34 35 37 37 40 42 44 46 50 51 51 46 43 43
46 44 42 39 38 36 34 32 32 32 33 34 34 36 36 37 37 37 37 38 36 34 33 30 32 29 30 30 31 32 33 34 35 37 38 41 39 43 45 44 46 53 55 51 48 46 47

GFSGBSN_500_spd_033.txt.gz
Wind_Speed
37 39 40 35 36 30 29 25 25 23 21 21 21 24 20 18 17 15 14 13 12 11 13 13 14 16 15 12 13 19 22 25 28 30 28 26 26 28 36 7 18 25 21 23 23 12 7
37 40 36 34 35 32 27 24 23 20 19 17 18 19 21 20 17 17 17 12 9 12 14 15 15 17 11 14 19 25 29 30 31 34 34 31 24 11 13 15 12 10 8 9 10 9 5
37 38 34 31 32 31 27 23 21 18 17 21 24 23 25 23 17 18 16 13 10 13 17 16 14 15 16 17 20 27 27 27 7 22 17 17 27 22 16 10 14 13 13 11 9 6 2
38 35 32 31 30 24 23 21 18 16 16 19 16 15 16 17 17 19 17 18 18 18 18 17 17 16 16 16 17 20 18 15 13 13 15 16 20 16 19 15 13 10 7 8 8 6 2
34 30 32 31 27 23 22 19 17 14 13 10 9 11 13 19 23 21 22 20 18 19 20 21 22 22 22 20 20 21 22 22 24 21 19 18 15 17 17 17 14 12 9 6 7 5 1
31 32 32 25 25 24 21 17 15 15 13 15 13 14 21 28 27 24 21 20 21 22 24 26 25 25 25 26 25 24 21 21 21 21 19 19 17 19 15 15 11 14 8 4 13 3 3
31 31 27 24 26 23 20 17 14 14 13 15 21 19 23 26 25 23 23 24 29 31 31 31 32 26 27 26 23 21 20 19 16 19 18 18 19 17 13 3 7 16 16 16 8 2 8
31 27 22 24 24 23 19 18 13 13 14 10 23 23 22 23 24 24 26 36 37 33 29 25 26 24 21 19 19 17 17 15 14 15 17 19 17 11 10 6 6 16 16 13 10 4 8
29 24 26 24 23 21 21 19 13 15 16 12 18 24 27 27 24 27 35 35 32 31 26 25 23 22 20 17 16 15 13 12 14 16 18 11 12 7 6 6 7 13 16 15 14 9 8
28 21 30 26 22 21 22 19 14 20 20 20 21 32 30 28 31 33 34 32 31 28 26 24 23 21 19 17 15 13 12 12 12 15 9 9 9 8 8 5 11 11 8 12 13 14 13
29 24 31 26 21 23 22 19 18 24 21 22 27 28 31 34 37 36 34 34 31 27 27 24 21 18 18 15 12 11 11 10 10 9 7 6 4 6 5 7 11 10 12 14 15 17 17
27 32 31 25 24 25 23 19 24 24 29 25 27 35 37 41 39 36 36 31 29 26 24 23 19 16 13 11 9 7 7 7 9 9 6 8 7 8 9 10 13 15 17 18 19 21 20
25 36 31 26 27 26 22 22 27 29 28 31 38 42 41 40 37 36 34 30 28 22 22 18 15 12 9 7 6 6 5 6 7 9 10 9 9 9 10 9 11 10 10 10 9 12 12
32 38 32 28 29 26 23 27 30 30 34 42 44 43 42 40 38 36 33 31 25 20 19 16 12 8 4 2 4 5 6 5 7 7 6 8 7 6 4 3 3 6 7 8 10 11 12
44 37 32 31 30 27 25 31 31 37 43 46 45 44 42 40 38 35 32 29 25 20 17 13 8 4 2 5 5 5 4 8 7 6 4 2 4 4 0 4 6 7 9 10 11 11 11
42 36 32 32 31 28 29 34 37 43 48 48 46 43 41 40 37 34 31 27 24 17 12 8 5 7 6 6 6 5 5 7 9 9 7 6 4 1 2 3 5 8 11 12 14 18 15
41 37 34 33 32 30 33 39 43 48 49 48 45 42 40 38 36 34 30 25 20 14 9 6 7 7 7 5 6 5 6 8 9 9 8 6 4 3 2 3 4 9 13 18 20 24 25
41 38 36 35 32 32 36 42 47 50 50 48 44 41 39 38 35 32 29 24 17 14 9 9 9 9 7 7 6 5 8 9 9 8 8 8 6 3 3 6 9 12 14 18 23 27 28
42 38 37 36 34 35 39 44 49 51 49 46 42 41 39 38 35 31 30 21 15 15 10 10 10 8 9 8 7 9 8 8 9 10 11 8 7 5 6 8 9 13 19 26 31 34 34
43 40 38 36 35 38 42 46 51 51 49 46 43 41 40 36 35 32 29 19 16 15 12 13 10 11 11 10 9 9 8 8 10 11 11 8 8 8 10 12 15 19 23 27 31 35 39
43 41 39 36 37 39 43 47 51 50 49 46 43 40 38 36 34 30 25 21 18 16 15 14 13 14 15 13 11 10 9 9 11 11 12 11 10 11 14 17 20 23 25 28 31 36 39
44 41 39 36 38 41 44 47 50 50 49 46 43 41 38 36 31 28 26 22 19 18 16 14 15 17 17 16 11 7 10 10 11 13 12 13 13 14 17 19 22 24 26 29 32 37 36
44 41 39 35 37 42 45 47 48 49 49 47 43 41 38 34 33 31 26 23 21 19 17 17 19 19 14 11 15 14 13 13 15 15 14 16 17 18 18 22 24 27 29 30 33 36 40
44 41 39 36 35 39 44 46 48 49 49 45 43 40 37 35 33 30 26 26 25 20 21 20 19 16 15 20 18 16 16 17 16 16 16 19 20 21 22 25 27 32 35 34 36 39 40
45 41 39 37 35 37 39 43 46 48 47 46 45 41 40 37 36 34 29 29 25 19 21 18 18 20 22 19 18 18 19 20 18 18 19 21 24 25 27 30 32 36 38 37 39 41 38
46 43 40 38 35 34 37 39 39 42 45 47 45 42 41 39 38 34 33 30 28 22 22 21 22 22 21 21 22 21 22 23 22 21 23 25 27 29 32 35 38 41 42 44 45 43 45
46 43 40 38 34 33 34 36 38 40 42 44 44 43 41 40 38 38 35 32 29 27 26 25 25 24 24 25 24 24 25 25 26 25 27 29 31 32 35 38 39 42 46 44 43 47 46
47 43 40 38 36 32 32 33 34 36 38 40 41 41 40 39 39 39 35 35 33 30 28 28 29 27 27 27 27 26 27 28 29 30 30 33 35 36 38 40 43 47 48 45 45 49 47
47 44 41 39 37 36 31 31 32 33 35 37 38 39 39 38 39 39 38 38 36 34 32 33 33 30 31 30 29 30 31 31 31 33 35 37 38 39 39 41 45 48 49 47 47 48 45

GFSGBSN_500_spd_036.txt.gz
Wind_Speed
45 41 42 40 40 39 32 33 35 31 27 24 24 23 20 21 15 15 15 16 13 14 15 13 17 16 14 13 16 19 22 26 31 39 43 40 37 30 20 13 11 19 17 14 15 16 12
45 38 41 39 39 37 33 31 30 30 25 22 22 18 16 15 17 16 14 15 12 11 13 16 16 12 16 14 18 25 31 33 36 41 43 41 34 32 25 21 12 24 17 16 16 14 9
35 35 40 39 39 36 30 30 31 28 23 20 19 22 23 20 19 17 15 14 13 14 17 16 16 15 15 16 21 25 29 32 34 32 37 39 41 40 35 22 21 16 12 13 12 10 7
30 28 36 36 36 33 29 31 23 23 20 17 19 25 17 19 21 18 18 16 14 15 14 17 17 15 16 18 22 21 24 28 20 22 17 29 35 31 20 21 20 18 19 18 13 9 7
27 29 33 34 34 29 29 26 22 21 17 15 14 11 10 13 18 17 21 19 17 17 15 17 16 17 17 20 22 14 19 15 18 18 17 16 19 20 16 20 16 16 19 16 13 6 2
29 29 31 34 31 30 28 24 22 19 16 15 12 12 11 15 16 23 23 20 20 16 17 19 19 19 19 20 19 21 16 20 22 18 20 22 19 23 22 18 15 13 14 10 8 3 2
33 29 31 34 31 29 27 25 21 18 16 16 14 14 13 20 25 24 20 19 17 18 21 21 22 22 25 23 23 25 26 24 24 22 23 26 26 26 24 13 11 6 6 6 2 3 6
33 32 33 32 31 28 23 24 20 19 16 14 15 15 18 26 25 22 21 19 21 25 24 22 24 25 24 23 23 24 23 23 21 23 25 23 20 18 19 15 19 11 11 7 1 5 8
37 35 33 33 28 23 26 24 21 19 14 15 17 22 21 22 25 23 21 22 25 26 27 25 24 24 24 22 21 19 18 17 19 20 18 19 16 14 13 10 17 15 14 11 11 8 13
40 39 35 32 25 26 26 23 23 18 16 15 22 24 22 24 24 23 25 28 28 28 27 26 23 22 23 19 18 17 16 16 16 16 15 14 17 13 10 8 8 7 11 16 15 13 14
48 41 34 30 26 29 28 25 24 18 22 14 16 31 27 27 24 28 31 30 29 28 28 26 24 22 21 19 17 18 17 16 14 13 14 12 12 10 9 9 9 9 12 13 15 18 15
47 37 35 26 30 31 29 27 25 21 25 23 20 28 28 27 33 33 32 31 30 28 26 25 23 21 19 17 14 14 15 15 14 14 15 14 12 9 8 9 9 10 12 15 17 19 19
45 40 34 29 34 32 30 28 26 25 27 27 26 32 30 37 37 34 33 31 29 28 27 24 21 18 16 15 14 14 13 12 10 11 13 13 11 10 10 11 10 8 7 8 8 9 10
45 40 35 35 35 33 31 30 27 29 32 30 31 30 40 41 38 36 33 29 29 28 26 23 20 17 14 11 13 13 13 13 14 13 12 13 13 10 8 6 3 3 3 5 6 7 10
44 40 35 41 36 35 33 32 30 34 35 30 31 39 45 42 40 38 35 31 28 28 23 20 18 15 11 11 11 11 12 15 14 12 9 10 10 8 6 5 3 1 2 1 2 6 10
44 38 38 40 37 36 35 33 33 36 34 33 36 47 46 44 41 39 36 33 26 25 22 18 14 10 10 10 9 10 13 12 12 11 11 11 11 8 7 5 5 1 2 5 8 12 15
42 38 44 40 39 37 36 33 35 36 37 39 48 49 47 44 41 39 37 33 25 23 19 14 8 6 4 8 9 9 10 11 13 12 11 12 11 9 7 5 2 2 5 8 13 16 19
44 41 46 41 40 39 36 34 37 36 40 47 51 49 46 43 41 38 36 32 25 20 15 10 6 5 1 7 7 9 12 12 12 14 14 12 11 11 7 4 4 5 7 12 15 19 22
41 48 43 41 40 40 38 37 39 42 45 51 51 48 45 43 41 37 35 31 24 21 15 9 5 6 5 7 8 11 13 15 17 16 15 14 13 10 8 7 7 9 12 17 20 22 24
46 47 44 41 40 39 38 38 42 45 50 53 51 48 46 43 40 37 34 28 24 20 14 10 9 9 8 9 11 13 13 15 16 15 15 15 13 11 11 11 12 14 17 22 24 25 26
49 46 43 41 40 38 38 41 44 49 52 53 50 46 43 41 39 37 33 28 22 20 15 13 12 11 11 13 13 13 13 13 13 15 16 15 13 13 13 13 13 16 18 22 25 27 29
53 46 42 41 39 39 41 44 47 51 53 53 49 46 43 42 40 37 33 27 23 19 16 14 13 13 13 14 12 14 13 13 13 15 16 17 18 17 16 16 17 20 21 24 27 28 30
49 44 42 40 38 40 42 45 49 52 53 52 49 45 43 42 39 35 30 27 24 21 18 15 13 13 13 14 16 17 19 16 16 17 18 18 18 18 18 20 22 22 24 26 29 31 32
48 45 42 39 37 41 43 47 49 52 53 52 48 42 41 39 35 33 30 29 26 22 19 16 14 14 12 18 21 20 18 17 16 17 19 20 20 21 21 23 25 27 27 29 32 31 35
48 45 42 40 37 40 42 45 49 51 51 50 48 44 41 39 36 36 33 33 28 23 19 17 16 16 18 22 22 21 19 18 19 20 21 22 23 24 25 26 28 30 30 33 34 34 39
48 46 44 40 39 35 41 45 47 49 49 50 48 46 42 40 39 38 34 32 28 24 21 20 18 20 22 23 24 23 23 22 22 21 22 24 26 27 27 31 32 32 33 35 37 37 40
48 46 44 40 38 39 34 42 44 48 50 49 47 45 42 41 39 38 35 33 30 25 24 23 22 22 23 24 25 25 25 26 25 25 24 27 30 30 31 34 35 36 37 39 40 42 47
48 46 43 40 36 38 39 37 42 46 48 48 46 45 43 42 40 39 36 35 33 30 28 26 26 24 27 27 28 27 28 28 27 28 29 31 33 32 34 36 38 38 40 41 42 46 48
48 45 42 40 36 35 36 38 39 43 45 45 44 44 43 42 40 40 38 38 35 33 32 32 30 30 31 30 31 30 30 31 32 32 32 34 35 36 37 38 39 41 42 43 48 51 50